Weather History for Oceana NAS, VA

Change the Weather History Date:

Friday, March 15, 2013

  Actual Average Record
Temperature  
Mean Temperature 44 °F -  
Max Temperature 57 °F 54 °F 84 °F (2012)
Min Temperature 30 °F 38 °F 28 °F (2005)
Degree Days  
Heating Degree Days 22    
Moisture  
Dew Point 25 °F    
Average Humidity 47    
Maximum Humidity 76    
Minimum Humidity 24    
Precipitation  
Precipitation 0.00 in - - ()
Sea Level Pressure  
Sea Level Pressure 30.02 in    
Wind  
Wind Speed 6 mph (SW)    
Max Wind Speed 23 mph    
Max Gust Speed 26 mph    
Visibility 10 miles    
Events      
Averages and records for this station are not official NWS values.
T = Trace of Precipitation, MM = Missing Value Source: NWS Daily Summary

Daily Weather History Graph

Daily Weather History Graph

Search for Another Location

Airport:

Trip Planner

Search our weather history database for the weather conditions in past years. The results will help you decide how hot, cold, wet, or windy it might be!

Date:

Astronomy

Mar. 15, 2013 Rise Set
Actual Time 7:14 AM EDT 7:11 PM EDT
Civil Twilight 6:48 AM EDT 7:37 PM EDT
Nautical Twilight 6:18 AM EDT 8:07 PM EDT
Astronomical Twilight 5:48 AM EDT 8:38 PM EDT
Moon 9:10 AM EDT (3/15) 11:16 PM EDT (3/15)
Length of Visible Light 12h 48m
Length of Day
11h 56m
Waxing Crescent, 15% of the Moon is Illuminated
Mar 15
Waxing Crescent
Mar 19
First Quarter
Mar 27
Full
Apr 3
Last Quarter
Apr 10
New

Hourly Weather History & Observations

Time (EDT) Temp. Windchill Dew Point Humidity Pressure Visibility Wind Dir Wind Speed Gust Speed Precip Events Conditions
12:56 AM 37.0 °F - 24.1 °F 59% 30.12 in 10.0 mi Calm Calm - N/A   Clear
1:56 AM 34.0 °F 31.0 °F 24.1 °F 67% 30.12 in 10.0 mi SSW 3.5 mph - N/A   Clear
2:56 AM 33.1 °F 30.0 °F 24.1 °F 70% 30.12 in 10.0 mi SW 3.5 mph - N/A   Clear
3:56 AM 33.1 °F 30.0 °F 24.1 °F 70% 30.12 in 10.0 mi SW 3.5 mph - N/A   Clear
4:56 AM 34.0 °F - 24.1 °F 67% 30.12 in 10.0 mi Calm Calm - N/A   Scattered Clouds
5:56 AM 30.0 °F - 23.0 °F 75% 30.13 in 10.0 mi Calm Calm - N/A   Clear
6:56 AM 30.9 °F 27.5 °F 24.1 °F 76% 30.13 in 10.0 mi SW 3.5 mph - N/A   Scattered Clouds
7:56 AM 30.9 °F 26.2 °F 24.1 °F 76% 30.14 in 10.0 mi SW 4.6 mph - N/A   Scattered Clouds
8:56 AM 37.9 °F 35.5 °F 27.0 °F 65% 30.15 in 10.0 mi WSW 3.5 mph - N/A   Mostly Cloudy
9:56 AM 44.1 °F - 19.9 °F 38% 30.14 in 10.0 mi Calm Calm - N/A   Mostly Cloudy
10:56 AM 46.9 °F - 19.0 °F 33% 30.12 in 10.0 mi Variable 5.8 mph - N/A   Scattered Clouds
11:56 AM 48.9 °F - 17.1 °F 28% 30.09 in 10.0 mi SSW 11.5 mph 18.4 mph N/A   Scattered Clouds
12:56 PM 52.0 °F - 17.1 °F 25% 30.04 in 10.0 mi SW 13.8 mph 23.0 mph N/A   Scattered Clouds
1:56 PM 54.0 °F - 18.0 °F 24% 30.00 in 10.0 mi SSW 12.7 mph 26.5 mph N/A   Scattered Clouds
2:56 PM 55.9 °F - 19.9 °F 25% 29.96 in 10.0 mi SW 15.0 mph 25.3 mph N/A   Scattered Clouds
3:56 PM 57.9 °F - 21.0 °F 24% 29.93 in 10.0 mi WSW 17.3 mph 25.3 mph N/A   Mostly Cloudy
4:56 PM 57.0 °F - 24.1 °F 28% 29.90 in 10.0 mi WSW 23.0 mph 26.5 mph N/A   Mostly Cloudy
5:56 PM 57.0 °F - 28.0 °F 33% 29.89 in 10.0 mi WSW 15.0 mph - N/A   Mostly Cloudy
6:56 PM 55.9 °F - 28.9 °F 36% 29.89 in 10.0 mi SW 12.7 mph - N/A   Mostly Cloudy
7:56 PM 55.0 °F - 30.0 °F 38% 29.89 in 10.0 mi SSW 6.9 mph - N/A   Overcast
8:56 PM 54.0 °F - 30.9 °F 41% 29.89 in 10.0 mi SSW 8.1 mph - N/A   Overcast
9:56 PM 54.0 °F - 32.0 °F 43% 29.88 in 10.0 mi SW 11.5 mph - N/A   Overcast
10:56 PM 53.1 °F - 32.0 °F 45% 29.88 in 10.0 mi SW 10.4 mph - N/A   Scattered Clouds
11:56 PM 53.1 °F - 32.0 °F 45% 29.87 in 10.0 mi SSW 9.2 mph - N/A   Clear